owner,sensor,date,latitude,longitude,vertical_datum,wind_speed,wind_to_direction,wind_speed_of_gust,qcFlag 
WAVCIS,ioos:station:WAVCIS:CSI03:3,2008-02-01T00:00:00Z,29.4412,-92.0613,10.0,6.196,282.0,,'11111222,11111222,99999999' 
WAVCIS,ioos:station:WAVCIS:CSI03:3,2008-02-01T01:00:00Z,29.4412,-92.0613,10.0,6.937,285.0,,'11111222,11111222,99999999' 
WAVCIS,ioos:station:WAVCIS:CSI03:3,2008-02-01T02:00:00Z,29.4412,-92.0613,10.0,6.818,287.0,,'11111222,11111222,99999999' 
WAVCIS,ioos:station:WAVCIS:CSI03:3,2008-02-01T03:00:00Z,29.4412,-92.0613,10.0,5.355,307.0,,'11111222,11111222,99999999' 
WAVCIS,ioos:station:WAVCIS:CSI03:3,2008-02-01T04:00:00Z,29.4412,-92.0613,10.0,4.839,307.0,,'11111222,11111222,99999999' 
WAVCIS,ioos:station:WAVCIS:CSI03:3,2008-02-01T05:00:00Z,29.4412,-92.0613,10.0,9.58,314.0,,'11111222,11111222,99999999' 
WAVCIS,ioos:station:WAVCIS:CSI03:3,2008-02-01T06:00:00Z,29.4412,-92.0613,10.0,10.82,315.0,,'11111222,11111222,99999999' 
WAVCIS,ioos:station:WAVCIS:CSI03:3,2008-02-01T07:00:00Z,29.4412,-92.0613,10.0,11.11,327.0,,'11111222,11111222,99999999' 
WAVCIS,ioos:station:WAVCIS:CSI03:3,2008-02-01T08:00:00Z,29.4412,-92.0613,10.0,10.48,322.0,,'11111222,11111222,99999999' 
WAVCIS,ioos:station:WAVCIS:CSI03:3,2008-02-01T09:00:00Z,29.4412,-92.0613,10.0,9.47,324.0,,'11111222,11111222,99999999' 
WAVCIS,ioos:station:WAVCIS:CSI03:3,2008-02-01T10:00:00Z,29.4412,-92.0613,10.0,8.72,330.0,,'11111222,11111222,99999999' 
WAVCIS,ioos:station:WAVCIS:CSI03:3,2008-02-01T11:00:00Z,29.4412,-92.0613,10.0,8.23,330.0,,'11111222,11111222,99999999' 
WAVCIS,ioos:station:WAVCIS:CSI03:3,2008-02-01T12:00:00Z,29.4412,-92.0613,10.0,6.776,335.0,,'11111222,11111222,99999999' 
WAVCIS,ioos:station:WAVCIS:CSI03:3,2008-02-01T13:00:00Z,29.4412,-92.0613,10.0,7.69,344.0,,'11111222,11111222,99999999' 
WAVCIS,ioos:station:WAVCIS:CSI03:3,2008-02-01T14:00:00Z,29.4412,-92.0613,10.0,6.408,352.0,,'11111222,11111222,99999999' 
WAVCIS,ioos:station:WAVCIS:CSI03:3,2008-02-01T15:00:00Z,29.4412,-92.0613,10.0,5.197,358.0,,'11111222,11111222,99999999' 
WAVCIS,ioos:station:WAVCIS:CSI03:3,2008-02-01T16:00:00Z,29.4412,-92.0613,10.0,6.608,11.0,,'11111222,11111222,99999999' 
WAVCIS,ioos:station:WAVCIS:CSI03:3,2008-02-01T17:00:00Z,29.4412,-92.0613,10.0,5.639,14.0,,'11111222,11111222,99999999' 
WAVCIS,ioos:station:WAVCIS:CSI03:3,2008-02-01T18:00:00Z,29.4412,-92.0613,10.0,4.255,28.0,,'11111222,11111222,99999999' 
WAVCIS,ioos:station:WAVCIS:CSI03:3,2008-02-01T19:00:00Z,29.4412,-92.0613,10.0,2.85,26.0,,'11111222,11111222,99999999' 
WAVCIS,ioos:station:WAVCIS:CSI03:3,2008-02-01T20:00:00Z,29.4412,-92.0613,10.0,1.959,15.0,,'11111222,11111222,99999999' 
WAVCIS,ioos:station:WAVCIS:CSI03:3,2008-02-01T21:00:00Z,29.4412,-92.0613,10.0,0.236,321.0,,'11111222,11111222,99999999' 
WAVCIS,ioos:station:WAVCIS:CSI03:3,2008-02-01T22:00:00Z,29.4412,-92.0613,10.0,1.321,185.0,,'11111222,11111222,99999999' 
WAVCIS,ioos:station:WAVCIS:CSI03:3,2008-02-01T23:00:00Z,29.4412,-92.0613,10.0,0.9,237.0,,'11111222,11111222,99999999' 
WAVCIS,ioos:station:WAVCIS:CSI03:3,2008-02-02T00:00:00Z,29.4412,-92.0613,10.0,0.875,200.0,,'11111222,11111222,99999999' 
WAVCIS,ioos:station:WAVCIS:CSI03:3,2008-02-02T01:00:00Z,29.4412,-92.0613,10.0,0.704,219.0,,'11111222,11111222,99999999' 
WAVCIS,ioos:station:WAVCIS:CSI03:3,2008-02-02T02:00:00Z,29.4412,-92.0613,10.0,2.207,178.0,,'11111222,11111222,99999999' 
WAVCIS,ioos:station:WAVCIS:CSI03:3,2008-02-02T03:00:00Z,29.4412,-92.0613,10.0,1.012,174.0,,'11111222,11111222,99999999' 
WAVCIS,ioos:station:WAVCIS:CSI03:3,2008-02-02T04:00:00Z,29.4412,-92.0613,10.0,2.217,180.0,,'11111222,11111222,99999999' 
WAVCIS,ioos:station:WAVCIS:CSI03:3,2008-02-02T05:00:00Z,29.4412,-92.0613,10.0,2.491,170.0,,'11111222,11111222,99999999' 
WAVCIS,ioos:station:WAVCIS:CSI03:3,2008-02-02T06:00:00Z,29.4412,-92.0613,10.0,2.73,146.0,,'11111222,11111222,99999999' 
WAVCIS,ioos:station:WAVCIS:CSI03:3,2008-02-02T07:00:00Z,29.4412,-92.0613,10.0,4.989,147.0,,'11111222,11111222,99999999' 
WAVCIS,ioos:station:WAVCIS:CSI03:3,2008-02-02T08:00:00Z,29.4412,-92.0613,10.0,4.704,136.0,,'11111222,11111222,99999999' 
WAVCIS,ioos:station:WAVCIS:CSI03:3,2008-02-02T09:00:00Z,29.4412,-92.0613,10.0,4.839,141.0,,'11111222,11111222,99999999' 
WAVCIS,ioos:station:WAVCIS:CSI03:3,2008-02-02T10:00:00Z,29.4412,-92.0613,10.0,4.041,119.0,,'11111222,11111222,99999999' 
WAVCIS,ioos:station:WAVCIS:CSI03:3,2008-02-02T11:00:00Z,29.4412,-92.0613,10.0,3.864,105.0,,'11111222,11111222,99999999' 
WAVCIS,ioos:station:WAVCIS:CSI03:3,2008-02-02T12:00:00Z,29.4412,-92.0613,10.0,4.58,117.0,,'11111222,11111222,99999999' 
WAVCIS,ioos:station:WAVCIS:CSI03:3,2008-02-02T13:00:00Z,29.4412,-92.0613,10.0,4.509,85.0,,'11111222,11111222,99999999' 
WAVCIS,ioos:station:WAVCIS:CSI03:3,2008-02-02T14:00:00Z,29.4412,-92.0613,10.0,4.252,95.0,,'11111222,11111222,99999999' 
WAVCIS,ioos:station:WAVCIS:CSI03:3,2008-02-02T15:00:00Z,29.4412,-92.0613,10.0,4.665,96.0,,'11111222,11111222,99999999' 
WAVCIS,ioos:station:WAVCIS:CSI03:3,2008-02-02T16:00:00Z,29.4412,-92.0613,10.0,6.377,129.0,,'11111222,11111222,99999999' 
WAVCIS,ioos:station:WAVCIS:CSI03:3,2008-02-02T17:00:00Z,29.4412,-92.0613,10.0,5.371,126.0,,'11111222,11111222,99999999' 
WAVCIS,ioos:station:WAVCIS:CSI03:3,2008-02-02T18:00:00Z,29.4412,-92.0613,10.0,4.899,137.0,,'11111222,11111222,99999999' 
WAVCIS,ioos:station:WAVCIS:CSI03:3,2008-02-02T19:00:00Z,29.4412,-92.0613,10.0,4.271,129.0,,'11111222,11111222,99999999' 
WAVCIS,ioos:station:WAVCIS:CSI03:3,2008-02-02T20:00:00Z,29.4412,-92.0613,10.0,4.939,132.0,,'11111222,11111222,99999999' 
WAVCIS,ioos:station:WAVCIS:CSI03:3,2008-02-02T21:00:00Z,29.4412,-92.0613,10.0,4.757,134.0,,'11111222,11111222,99999999' 
WAVCIS,ioos:station:WAVCIS:CSI03:3,2008-02-02T22:00:00Z,29.4412,-92.0613,10.0,4.875,130.0,,'11111222,11111222,99999999' 
WAVCIS,ioos:station:WAVCIS:CSI03:3,2008-02-02T23:00:00Z,29.4412,-92.0613,10.0,4.65,122.0,,'11111222,11111222,99999999' 
WAVCIS,ioos:station:WAVCIS:CSI03:3,2008-02-03T00:00:00Z,29.4412,-92.0613,10.0,4.851,116.0,,'11111222,11111222,99999999' 
WAVCIS,ioos:station:WAVCIS:CSI03:3,2008-02-03T01:00:00Z,29.4412,-92.0613,10.0,6.057,130.0,,'11111222,11111222,99999999' 
WAVCIS,ioos:station:WAVCIS:CSI03:3,2008-02-03T02:00:00Z,29.4412,-92.0613,10.0,6.513,128.0,,'11111222,11111222,99999999' 
WAVCIS,ioos:station:WAVCIS:CSI03:3,2008-02-03T03:00:00Z,29.4412,-92.0613,10.0,6.652,121.0,,'11111222,11111222,99999999' 
WAVCIS,ioos:station:WAVCIS:CSI03:3,2008-02-03T04:00:00Z,29.4412,-92.0613,10.0,6.958,124.0,,'11111222,11111222,99999999' 
WAVCIS,ioos:station:WAVCIS:CSI03:3,2008-02-03T05:00:00Z,29.4412,-92.0613,10.0,6.108,117.0,,'11111222,11111222,99999999' 
WAVCIS,ioos:station:WAVCIS:CSI03:3,2008-02-03T06:00:00Z,29.4412,-92.0613,10.0,7.87,125.0,,'11111222,11111222,99999999' 
WAVCIS,ioos:station:WAVCIS:CSI03:3,2008-02-03T07:00:00Z,29.4412,-92.0613,10.0,6.954,124.0,,'11111222,11111222,99999999' 
WAVCIS,ioos:station:WAVCIS:CSI03:3,2008-02-03T08:00:00Z,29.4412,-92.0613,10.0,6.573,144.0,,'11111222,11111222,99999999' 
WAVCIS,ioos:station:WAVCIS:CSI03:3,2008-02-03T09:00:00Z,29.4412,-92.0613,10.0,6.901,139.0,,'11111222,11111222,99999999' 
WAVCIS,ioos:station:WAVCIS:CSI03:3,2008-02-03T10:00:00Z,29.4412,-92.0613,10.0,4.232,131.0,,'11111222,11111222,99999999' 
WAVCIS,ioos:station:WAVCIS:CSI03:3,2008-02-03T11:00:00Z,29.4412,-92.0613,10.0,4.908,120.0,,'11111222,11111222,99999999' 
WAVCIS,ioos:station:WAVCIS:CSI03:3,2008-02-03T12:00:00Z,29.4412,-92.0613,10.0,5.594,139.0,,'11111222,11111222,99999999' 
WAVCIS,ioos:station:WAVCIS:CSI03:3,2008-02-03T13:00:00Z,29.4412,-92.0613,10.0,6.139,156.0,,'11111222,11111222,99999999' 
WAVCIS,ioos:station:WAVCIS:CSI03:3,2008-02-03T14:00:00Z,29.4412,-92.0613,10.0,6.537,172.0,,'11111222,11111222,99999999' 
WAVCIS,ioos:station:WAVCIS:CSI03:3,2008-02-03T15:00:00Z,29.4412,-92.0613,10.0,7.42,175.0,,'11111222,11111222,99999999' 
WAVCIS,ioos:station:WAVCIS:CSI03:3,2008-02-03T16:00:00Z,29.4412,-92.0613,10.0,9.11,180.0,,'11111222,11111222,99999999' 
WAVCIS,ioos:station:WAVCIS:CSI03:3,2008-02-03T17:00:00Z,29.4412,-92.0613,10.0,8.67,178.0,,'11111222,11111222,99999999' 
WAVCIS,ioos:station:WAVCIS:CSI03:3,2008-02-03T18:00:00Z,29.4412,-92.0613,10.0,6.292,170.0,,'11111222,11111222,99999999' 
WAVCIS,ioos:station:WAVCIS:CSI03:3,2008-02-03T19:00:00Z,29.4412,-92.0613,10.0,5.481,169.0,,'11111222,11111222,99999999' 
WAVCIS,ioos:station:WAVCIS:CSI03:3,2008-02-03T20:00:00Z,29.4412,-92.0613,10.0,7.16,167.0,,'11111222,11111222,99999999' 
WAVCIS,ioos:station:WAVCIS:CSI03:3,2008-02-03T21:00:00Z,29.4412,-92.0613,10.0,5.935,159.0,,'11111222,11111222,99999999' 
WAVCIS,ioos:station:WAVCIS:CSI03:3,2008-02-03T22:00:00Z,29.4412,-92.0613,10.0,5.631,145.0,,'11111222,11111222,99999999' 
WAVCIS,ioos:station:WAVCIS:CSI03:3,2008-02-03T23:00:00Z,29.4412,-92.0613,10.0,5.394,157.0,,'11111222,11111222,99999999' 
WAVCIS,ioos:station:WAVCIS:CSI03:3,2008-02-04T00:00:00Z,29.4412,-92.0613,10.0,7.83,165.0,,'11111222,11111222,99999999' 
WAVCIS,ioos:station:WAVCIS:CSI03:3,2008-02-04T01:00:00Z,29.4412,-92.0613,10.0,8.15,160.0,,'11111222,11111222,99999999' 
WAVCIS,ioos:station:WAVCIS:CSI03:3,2008-02-04T02:00:00Z,29.4412,-92.0613,10.0,6.582,158.0,,'11111222,11111222,99999999' 
WAVCIS,ioos:station:WAVCIS:CSI03:3,2008-02-04T03:00:00Z,29.4412,-92.0613,10.0,8.04,159.0,,'11111222,11111222,99999999' 
WAVCIS,ioos:station:WAVCIS:CSI03:3,2008-02-04T04:00:00Z,29.4412,-92.0613,10.0,8.06,165.0,,'11111222,11111222,99999999' 
WAVCIS,ioos:station:WAVCIS:CSI03:3,2008-02-04T05:00:00Z,29.4412,-92.0613,10.0,7.78,156.0,,'11111222,11111222,99999999' 
WAVCIS,ioos:station:WAVCIS:CSI03:3,2008-02-04T06:00:00Z,29.4412,-92.0613,10.0,7.76,157.0,,'11111222,11111222,99999999' 
WAVCIS,ioos:station:WAVCIS:CSI03:3,2008-02-04T07:00:00Z,29.4412,-92.0613,10.0,7.65,164.0,,'11111222,11111222,99999999' 
WAVCIS,ioos:station:WAVCIS:CSI03:3,2008-02-04T08:00:00Z,29.4412,-92.0613,10.0,7.44,168.0,,'11111222,11111222,99999999' 
WAVCIS,ioos:station:WAVCIS:CSI03:3,2008-02-04T09:00:00Z,29.4412,-92.0613,10.0,8.13,164.0,,'11111222,11111222,99999999' 
WAVCIS,ioos:station:WAVCIS:CSI03:3,2008-02-04T10:00:00Z,29.4412,-92.0613,10.0,7.7,162.0,,'11111222,11111222,99999999' 
WAVCIS,ioos:station:WAVCIS:CSI03:3,2008-02-04T11:00:00Z,29.4412,-92.0613,10.0,7.97,162.0,,'11111222,11111222,99999999' 
WAVCIS,ioos:station:WAVCIS:CSI03:3,2008-02-04T12:00:00Z,29.4412,-92.0613,10.0,7.2,161.0,,'11111222,11111222,99999999' 
WAVCIS,ioos:station:WAVCIS:CSI03:3,2008-02-04T13:00:00Z,29.4412,-92.0613,10.0,6.788,155.0,,'11111222,11111222,99999999' 
WAVCIS,ioos:station:WAVCIS:CSI03:3,2008-02-04T14:00:00Z,29.4412,-92.0613,10.0,6.142,151.0,,'11111222,11111222,99999999' 
WAVCIS,ioos:station:WAVCIS:CSI03:3,2008-02-04T15:00:00Z,29.4412,-92.0613,10.0,5.876,140.0,,'11111222,11111222,99999999' 
WAVCIS,ioos:station:WAVCIS:CSI03:3,2008-02-04T16:00:00Z,29.4412,-92.0613,10.0,5.265,139.0,,'11111222,11111222,99999999' 
WAVCIS,ioos:station:WAVCIS:CSI03:3,2008-02-04T17:00:00Z,29.4412,-92.0613,10.0,5.64,144.0,,'11111222,11111222,99999999' 
WAVCIS,ioos:station:WAVCIS:CSI03:3,2008-02-04T18:00:00Z,29.4412,-92.0613,10.0,5.949,132.0,,'11111222,11111222,99999999' 
WAVCIS,ioos:station:WAVCIS:CSI03:3,2008-02-04T19:00:00Z,29.4412,-92.0613,10.0,5.12,121.0,,'11111222,11111222,99999999' 
WAVCIS,ioos:station:WAVCIS:CSI03:3,2008-02-04T20:00:00Z,29.4412,-92.0613,10.0,5.767,114.0,,'11111222,11111222,99999999' 
WAVCIS,ioos:station:WAVCIS:CSI03:3,2008-02-04T21:00:00Z,29.4412,-92.0613,10.0,6.166,130.0,,'11111222,11111222,99999999' 
WAVCIS,ioos:station:WAVCIS:CSI03:3,2008-02-04T22:00:00Z,29.4412,-92.0613,10.0,6.112,127.0,,'11111222,11111222,99999999' 
WAVCIS,ioos:station:WAVCIS:CSI03:3,2008-02-04T23:00:00Z,29.4412,-92.0613,10.0,7.8,137.0,,'11111222,11111222,99999999' 
WAVCIS,ioos:station:WAVCIS:CSI03:3,2008-02-05T00:00:00Z,29.4412,-92.0613,10.0,8.13,139.0,,'11111222,11111222,99999999' 
WAVCIS,ioos:station:WAVCIS:CSI03:3,2008-02-05T01:00:00Z,29.4412,-92.0613,10.0,8.68,143.0,,'11111222,11111222,99999999' 
WAVCIS,ioos:station:WAVCIS:CSI03:3,2008-02-05T02:00:00Z,29.4412,-92.0613,10.0,8.22,140.0,,'11111222,11111222,99999999' 
WAVCIS,ioos:station:WAVCIS:CSI03:3,2008-02-05T03:00:00Z,29.4412,-92.0613,10.0,7.86,144.0,,'11111222,11111222,99999999' 
WAVCIS,ioos:station:WAVCIS:CSI03:3,2008-02-05T04:00:00Z,29.4412,-92.0613,10.0,8.44,147.0,,'11111222,11111222,99999999' 
WAVCIS,ioos:station:WAVCIS:CSI03:3,2008-02-05T05:00:00Z,29.4412,-92.0613,10.0,8.37,143.0,,'11111222,11111222,99999999' 
WAVCIS,ioos:station:WAVCIS:CSI03:3,2008-02-05T06:00:00Z,29.4412,-92.0613,10.0,8.43,145.0,,'11111222,11111222,99999999' 
WAVCIS,ioos:station:WAVCIS:CSI03:3,2008-02-05T07:00:00Z,29.4412,-92.0613,10.0,7.96,150.0,,'11111222,11111222,99999999' 
WAVCIS,ioos:station:WAVCIS:CSI03:3,2008-02-05T08:00:00Z,29.4412,-92.0613,10.0,6.513,138.0,,'11111222,11111222,99999999' 
WAVCIS,ioos:station:WAVCIS:CSI03:3,2008-02-05T09:00:00Z,29.4412,-92.0613,10.0,6.187,135.0,,'11111222,11111222,99999999' 
WAVCIS,ioos:station:WAVCIS:CSI03:3,2008-02-05T10:00:00Z,29.4412,-92.0613,10.0,6.233,126.0,,'11111222,11111222,99999999' 
WAVCIS,ioos:station:WAVCIS:CSI03:3,2008-02-05T11:00:00Z,29.4412,-92.0613,10.0,6.004,118.0,,'11111222,11111222,99999999' 
WAVCIS,ioos:station:WAVCIS:CSI03:3,2008-02-05T12:00:00Z,29.4412,-92.0613,10.0,6.904,124.0,,'11111222,11111222,99999999' 
WAVCIS,ioos:station:WAVCIS:CSI03:3,2008-02-05T13:00:00Z,29.4412,-92.0613,10.0,8.22,129.0,,'11111222,11111222,99999999' 
WAVCIS,ioos:station:WAVCIS:CSI03:3,2008-02-05T14:00:00Z,29.4412,-92.0613,10.0,8.79,140.0,,'11111222,11111222,99999999' 
WAVCIS,ioos:station:WAVCIS:CSI03:3,2008-02-05T15:00:00Z,29.4412,-92.0613,10.0,8.68,144.0,,'11111222,11111222,99999999' 
WAVCIS,ioos:station:WAVCIS:CSI03:3,2008-02-05T16:00:00Z,29.4412,-92.0613,10.0,9.16,149.0,,'11111222,11111222,99999999' 
WAVCIS,ioos:station:WAVCIS:CSI03:3,2008-02-05T17:00:00Z,29.4412,-92.0613,10.0,9.74,148.0,,'11111222,11111222,99999999' 
WAVCIS,ioos:station:WAVCIS:CSI03:3,2008-02-05T18:00:00Z,29.4412,-92.0613,10.0,9.61,146.0,,'11111222,11111222,99999999' 
WAVCIS,ioos:station:WAVCIS:CSI03:3,2008-02-05T19:00:00Z,29.4412,-92.0613,10.0,8.58,148.0,,'11111222,11111222,99999999' 
WAVCIS,ioos:station:WAVCIS:CSI03:3,2008-02-05T20:00:00Z,29.4412,-92.0613,10.0,9.52,144.0,,'11111222,11111222,99999999' 
WAVCIS,ioos:station:WAVCIS:CSI03:3,2008-02-05T21:00:00Z,29.4412,-92.0613,10.0,7.88,138.0,,'11111222,11111222,99999999' 
WAVCIS,ioos:station:WAVCIS:CSI03:3,2008-02-05T22:00:00Z,29.4412,-92.0613,10.0,6.949,140.0,,'11111222,11111222,99999999' 
WAVCIS,ioos:station:WAVCIS:CSI03:3,2008-02-05T23:00:00Z,29.4412,-92.0613,10.0,6.176,136.0,,'11111222,11111222,99999999' 
WAVCIS,ioos:station:WAVCIS:CSI03:3,2008-02-06T00:00:00Z,29.4412,-92.0613,10.0,5.866,151.0,,'11111222,11111222,99999999' 
WAVCIS,ioos:station:WAVCIS:CSI03:3,2008-02-06T01:00:00Z,29.4412,-92.0613,10.0,6.246,138.0,,'11111222,11111222,99999999' 
WAVCIS,ioos:station:WAVCIS:CSI03:3,2008-02-06T02:00:00Z,29.4412,-92.0613,10.0,5.07,140.0,,'11111222,11111222,99999999' 
WAVCIS,ioos:station:WAVCIS:CSI03:3,2008-02-06T03:00:00Z,29.4412,-92.0613,10.0,5.181,140.0,,'11111222,11111222,99999999' 
WAVCIS,ioos:station:WAVCIS:CSI03:3,2008-02-06T04:00:00Z,29.4412,-92.0613,10.0,2.943,136.0,,'11111222,11111222,99999999' 
WAVCIS,ioos:station:WAVCIS:CSI03:3,2008-02-06T05:00:00Z,29.4412,-92.0613,10.0,2.36,153.0,,'11111222,11111222,99999999' 
WAVCIS,ioos:station:WAVCIS:CSI03:3,2008-02-06T06:00:00Z,29.4412,-92.0613,10.0,3.372,202.0,,'11111222,11111222,99999999' 
WAVCIS,ioos:station:WAVCIS:CSI03:3,2008-02-06T07:00:00Z,29.4412,-92.0613,10.0,3.064,191.0,,'11111222,11111222,99999999' 
WAVCIS,ioos:station:WAVCIS:CSI03:3,2008-02-06T08:00:00Z,29.4412,-92.0613,10.0,1.225,204.0,,'11111222,11111222,99999999' 
WAVCIS,ioos:station:WAVCIS:CSI03:3,2008-02-06T09:00:00Z,29.4412,-92.0613,10.0,12.15,339.0,,'11111222,11111222,99999999' 
WAVCIS,ioos:station:WAVCIS:CSI03:3,2008-02-06T10:00:00Z,29.4412,-92.0613,10.0,10.36,347.0,,'11111222,11111222,99999999' 
WAVCIS,ioos:station:WAVCIS:CSI03:3,2008-02-06T11:00:00Z,29.4412,-92.0613,10.0,7.51,355.0,,'11111222,11111222,99999999' 
WAVCIS,ioos:station:WAVCIS:CSI03:3,2008-02-06T12:00:00Z,29.4412,-92.0613,10.0,8.05,336.0,,'11111222,11111222,99999999' 
WAVCIS,ioos:station:WAVCIS:CSI03:3,2008-02-06T13:00:00Z,29.4412,-92.0613,10.0,9.84,326.0,,'11111222,11111222,99999999' 
WAVCIS,ioos:station:WAVCIS:CSI03:3,2008-02-06T14:00:00Z,29.4412,-92.0613,10.0,9.44,323.0,,'11111222,11111222,99999999' 
WAVCIS,ioos:station:WAVCIS:CSI03:3,2008-02-06T15:00:00Z,29.4412,-92.0613,10.0,8.67,328.0,,'11111222,11111222,99999999' 
WAVCIS,ioos:station:WAVCIS:CSI03:3,2008-02-06T16:00:00Z,29.4412,-92.0613,10.0,8.13,318.0,,'11111222,11111222,99999999' 
WAVCIS,ioos:station:WAVCIS:CSI03:3,2008-02-06T17:00:00Z,29.4412,-92.0613,10.0,11.07,317.0,,'11111222,11111222,99999999' 
WAVCIS,ioos:station:WAVCIS:CSI03:3,2008-02-06T18:00:00Z,29.4412,-92.0613,10.0,8.52,318.0,,'11111222,11111222,99999999' 
WAVCIS,ioos:station:WAVCIS:CSI03:3,2008-02-06T19:00:00Z,29.4412,-92.0613,10.0,6.654,316.0,,'11111222,11111222,99999999' 
WAVCIS,ioos:station:WAVCIS:CSI03:3,2008-02-06T20:00:00Z,29.4412,-92.0613,10.0,7.43,323.0,,'11111222,11111222,99999999' 
WAVCIS,ioos:station:WAVCIS:CSI03:3,2008-02-06T21:00:00Z,29.4412,-92.0613,10.0,7.23,318.0,,'11111222,11111222,99999999' 
WAVCIS,ioos:station:WAVCIS:CSI03:3,2008-02-06T22:00:00Z,29.4412,-92.0613,10.0,5.808,318.0,,'11111222,11111222,99999999' 
WAVCIS,ioos:station:WAVCIS:CSI03:3,2008-02-06T23:00:00Z,29.4412,-92.0613,10.0,6.045,318.0,,'11111222,11111222,99999999' 
WAVCIS,ioos:station:WAVCIS:CSI03:3,2008-02-07T00:00:00Z,29.4412,-92.0613,10.0,5.442,328.0,,'11111222,11111222,99999999' 
WAVCIS,ioos:station:WAVCIS:CSI03:3,2008-02-07T01:00:00Z,29.4412,-92.0613,10.0,5.805,344.0,,'11111222,11111222,99999999' 
WAVCIS,ioos:station:WAVCIS:CSI03:3,2008-02-07T02:00:00Z,29.4412,-92.0613,10.0,4.353,351.0,,'11111222,11111222,99999999' 
WAVCIS,ioos:station:WAVCIS:CSI03:3,2008-02-07T03:00:00Z,29.4412,-92.0613,10.0,4.068,355.0,,'11111222,11111222,99999999' 
WAVCIS,ioos:station:WAVCIS:CSI03:3,2008-02-07T04:00:00Z,29.4412,-92.0613,10.0,3.906,2.0,,'11111222,11111222,99999999' 
WAVCIS,ioos:station:WAVCIS:CSI03:3,2008-02-07T05:00:00Z,29.4412,-92.0613,10.0,4.668,344.0,,'11111222,11111222,99999999' 
WAVCIS,ioos:station:WAVCIS:CSI03:3,2008-02-07T06:00:00Z,29.4412,-92.0613,10.0,3.199,357.0,,'11111222,11111222,99999999' 
WAVCIS,ioos:station:WAVCIS:CSI03:3,2008-02-07T07:00:00Z,29.4412,-92.0613,10.0,3.395,0.0,,'11111222,11111222,99999999' 
WAVCIS,ioos:station:WAVCIS:CSI03:3,2008-02-07T08:00:00Z,29.4412,-92.0613,10.0,3.154,28.0,,'11111222,11111222,99999999' 
WAVCIS,ioos:station:WAVCIS:CSI03:3,2008-02-07T09:00:00Z,29.4412,-92.0613,10.0,3.971,22.0,,'11111222,11111222,99999999' 
WAVCIS,ioos:station:WAVCIS:CSI03:3,2008-02-07T10:00:00Z,29.4412,-92.0613,10.0,4.438,54.0,,'11111222,11111222,99999999' 
WAVCIS,ioos:station:WAVCIS:CSI03:3,2008-02-07T11:00:00Z,29.4412,-92.0613,10.0,5.605,58.0,,'11111222,11111222,99999999' 
WAVCIS,ioos:station:WAVCIS:CSI03:3,2008-02-07T12:00:00Z,29.4412,-92.0613,10.0,5.498,58.0,,'11111222,11111222,99999999' 
WAVCIS,ioos:station:WAVCIS:CSI03:3,2008-02-07T13:00:00Z,29.4412,-92.0613,10.0,5.727,73.0,,'11111222,11111222,99999999' 
WAVCIS,ioos:station:WAVCIS:CSI03:3,2008-02-07T14:00:00Z,29.4412,-92.0613,10.0,5.667,83.0,,'11111222,11111222,99999999' 
WAVCIS,ioos:station:WAVCIS:CSI03:3,2008-02-07T15:00:00Z,29.4412,-92.0613,10.0,5.347,117.0,,'11111222,11111222,99999999' 
WAVCIS,ioos:station:WAVCIS:CSI03:3,2008-02-07T16:00:00Z,29.4412,-92.0613,10.0,4.89,120.0,,'11111222,11111222,99999999' 
WAVCIS,ioos:station:WAVCIS:CSI03:3,2008-02-07T17:00:00Z,29.4412,-92.0613,10.0,5.201,135.0,,'11111222,11111222,99999999' 
WAVCIS,ioos:station:WAVCIS:CSI03:3,2008-02-07T18:00:00Z,29.4412,-92.0613,10.0,5.343,154.0,,'11111222,11111222,99999999' 
WAVCIS,ioos:station:WAVCIS:CSI03:3,2008-02-07T19:00:00Z,29.4412,-92.0613,10.0,5.048,161.0,,'11111222,11111222,99999999' 
WAVCIS,ioos:station:WAVCIS:CSI03:3,2008-02-07T20:00:00Z,29.4412,-92.0613,10.0,5.973,170.0,,'11111222,11111222,99999999' 
WAVCIS,ioos:station:WAVCIS:CSI03:3,2008-02-07T21:00:00Z,29.4412,-92.0613,10.0,1.824,190.0,,'11111222,11111222,99999999' 
WAVCIS,ioos:station:WAVCIS:CSI03:3,2008-02-07T22:00:00Z,29.4412,-92.0613,10.0,1.901,236.0,,'11111222,11111222,99999999' 
WAVCIS,ioos:station:WAVCIS:CSI03:3,2008-02-07T23:00:00Z,29.4412,-92.0613,10.0,3.425,242.0,,'11111222,11111222,99999999' 
WAVCIS,ioos:station:WAVCIS:CSI03:3,2008-02-08T00:00:00Z,29.4412,-92.0613,10.0,0.797,241.0,,'11111222,11111222,99999999' 
WAVCIS,ioos:station:WAVCIS:CSI03:3,2008-02-08T01:00:00Z,29.4412,-92.0613,10.0,0.278,206.0,,'11111222,11111222,99999999' 
WAVCIS,ioos:station:WAVCIS:CSI03:3,2008-02-08T02:00:00Z,29.4412,-92.0613,10.0,4.522,242.0,,'11111222,11111222,99999999' 
WAVCIS,ioos:station:WAVCIS:CSI03:3,2008-02-08T03:00:00Z,29.4412,-92.0613,10.0,4.778,242.0,,'11111222,11111222,99999999' 
WAVCIS,ioos:station:WAVCIS:CSI03:3,2008-02-08T04:00:00Z,29.4412,-92.0613,10.0,4.527,246.0,,'11111222,11111222,99999999' 
WAVCIS,ioos:station:WAVCIS:CSI03:3,2008-02-08T05:00:00Z,29.4412,-92.0613,10.0,5.112,271.0,,'11111222,11111222,99999999' 
WAVCIS,ioos:station:WAVCIS:CSI03:3,2008-02-08T06:00:00Z,29.4412,-92.0613,10.0,6.07,286.0,,'11111222,11111222,99999999' 
WAVCIS,ioos:station:WAVCIS:CSI03:3,2008-02-08T07:00:00Z,29.4412,-92.0613,10.0,6.567,318.0,,'11111222,11111222,99999999' 
WAVCIS,ioos:station:WAVCIS:CSI03:3,2008-02-08T08:00:00Z,29.4412,-92.0613,10.0,5.37,354.0,,'11111222,11111222,99999999' 
WAVCIS,ioos:station:WAVCIS:CSI03:3,2008-02-08T09:00:00Z,29.4412,-92.0613,10.0,5.048,19.0,,'11111222,11111222,99999999' 
WAVCIS,ioos:station:WAVCIS:CSI03:3,2008-02-08T10:00:00Z,29.4412,-92.0613,10.0,3.766,38.0,,'11111222,11111222,99999999' 
WAVCIS,ioos:station:WAVCIS:CSI03:3,2008-02-08T11:00:00Z,29.4412,-92.0613,10.0,4.817,52.0,,'11111222,11111222,99999999' 
WAVCIS,ioos:station:WAVCIS:CSI03:3,2008-02-08T12:00:00Z,29.4412,-92.0613,10.0,6.542,59.0,,'11111222,11111222,99999999' 
WAVCIS,ioos:station:WAVCIS:CSI03:3,2008-02-08T13:00:00Z,29.4412,-92.0613,10.0,6.329,89.0,,'11111222,11111222,99999999' 
WAVCIS,ioos:station:WAVCIS:CSI03:3,2008-02-08T14:00:00Z,29.4412,-92.0613,10.0,5.779,100.0,,'11111222,11111222,99999999' 
WAVCIS,ioos:station:WAVCIS:CSI03:3,2008-02-08T15:00:00Z,29.4412,-92.0613,10.0,5.728,111.0,,'11111222,11111222,99999999' 
WAVCIS,ioos:station:WAVCIS:CSI03:3,2008-02-08T16:00:00Z,29.4412,-92.0613,10.0,6.399,121.0,,'11111222,11111222,99999999' 
WAVCIS,ioos:station:WAVCIS:CSI03:3,2008-02-08T17:00:00Z,29.4412,-92.0613,10.0,6.36,126.0,,'11111222,11111222,99999999' 
WAVCIS,ioos:station:WAVCIS:CSI03:3,2008-02-08T18:00:00Z,29.4412,-92.0613,10.0,5.941,136.0,,'11111222,11111222,99999999' 
WAVCIS,ioos:station:WAVCIS:CSI03:3,2008-02-08T19:00:00Z,29.4412,-92.0613,10.0,6.076,147.0,,'11111222,11111222,99999999' 
WAVCIS,ioos:station:WAVCIS:CSI03:3,2008-02-08T20:00:00Z,29.4412,-92.0613,10.0,5.886,155.0,,'11111222,11111222,99999999' 
WAVCIS,ioos:station:WAVCIS:CSI03:3,2008-02-08T21:00:00Z,29.4412,-92.0613,10.0,6.486,159.0,,'11111222,11111222,99999999' 
WAVCIS,ioos:station:WAVCIS:CSI03:3,2008-02-08T22:00:00Z,29.4412,-92.0613,10.0,5.502,161.0,,'11111222,11111222,99999999' 
WAVCIS,ioos:station:WAVCIS:CSI03:3,2008-02-08T23:00:00Z,29.4412,-92.0613,10.0,4.627,158.0,,'11111222,11111222,99999999' 
WAVCIS,ioos:station:WAVCIS:CSI03:3,2008-02-09T00:00:00Z,29.4412,-92.0613,10.0,4.153,156.0,,'11111222,11111222,99999999' 
WAVCIS,ioos:station:WAVCIS:CSI03:3,2008-02-09T01:00:00Z,29.4412,-92.0613,10.0,4.105,159.0,,'11111222,11111222,99999999' 
WAVCIS,ioos:station:WAVCIS:CSI03:3,2008-02-09T02:00:00Z,29.4412,-92.0613,10.0,4.579,178.0,,'11111222,11111222,99999999' 
WAVCIS,ioos:station:WAVCIS:CSI03:3,2008-02-09T03:00:00Z,29.4412,-92.0613,10.0,3.089,194.0,,'11111222,11111222,99999999' 
WAVCIS,ioos:station:WAVCIS:CSI03:3,2008-02-09T04:00:00Z,29.4412,-92.0613,10.0,3.536,200.0,,'11111222,11111222,99999999' 
WAVCIS,ioos:station:WAVCIS:CSI03:3,2008-02-09T05:00:00Z,29.4412,-92.0613,10.0,3.102,199.0,,'11111222,11111222,99999999' 